Hourly Weather Dundee

Today, 4 July, Saturday

Time Temperature Precipitation Wind Pressure Humidity
00:00 +8°C° 0 mm 2 mps 742 mmHg 93%
01:00 +8°C° 0 mm 2 mps 742 mmHg 93%
02:00 +8°C° 0 mm 2 mps 742 mmHg 93%
03:00 +7°C° 0 mm 2 mps 742 mmHg 93%
04:00 +8°C° 0 mm 2 mps 742 mmHg 92%
05:00 +9°C° 0 mm 2 mps 742 mmHg 91%
06:00 +10°C° 0 mm 2 mps 742 mmHg 90%
07:00 +10°C° 0.3 mm 2 mps 742 mmHg 92%
08:00 +10°C° 0.3 mm 2 mps 742 mmHg 93%
09:00 +11°C° 0.3 mm 1 mps 742 mmHg 94%
10:00 +12°C° 0.3 mm 2 mps 742 mmHg 92%
11:00 +12°C° 0.3 mm 2 mps 742 mmHg 91%
12:00 +13°C° 0.3 mm 2 mps 742 mmHg 89%
13:00 +13°C° 0 mm 3 mps 742 mmHg 86%
14:00 +14°C° 0 mm 3 mps 742 mmHg 84%
15:00 +16°C° 0 mm 3 mps 742 mmHg 81%
16:00 +16°C° 0 mm 3 mps 741 mmHg 82%
17:00 +16°C° 0 mm 3 mps 741 mmHg 82%
18:00 +16°C° 0 mm 3 mps 741 mmHg 82%
19:00 +14°C° 0.3 mm 3 mps 740 mmHg 87%
20:00 +13°C° 0.3 mm 3 mps 739 mmHg 91%
21:00 +13°C° 0.3 mm 2 mps 739 mmHg 96%
22:00 +12°C° 2 mm 3 mps 738 mmHg 97%
23:00 +12°C° 2 mm 3 mps 736 mmHg 98%

Tomorrow, 5 July, Sunday

Time Temperature Precipitation Wind Pressure Humidity
00:00 +12°C° 2 mm 3 mps 735 mmHg 99%
01:00 +12°C° 1.3 mm 3 mps 735 mmHg 98%
02:00 +12°C° 1.3 mm 4 mps 734 mmHg 98%
03:00 +13°C° 1.3 mm 4 mps 733 mmHg 97%
04:00 +12°C° 0.1 mm 5 mps 734 mmHg 95%
05:00 +11°C° 0.1 mm 6 mps 734 mmHg 92%
06:00 +11°C° 0.1 mm 7 mps 734 mmHg 90%
07:00 +12°C° 0.1 mm 8 mps 735 mmHg 84%
08:00 +12°C° 0.1 mm 8 mps 736 mmHg 78%
09:00 +12°C° 0.1 mm 9 mps 736 mmHg 72%
10:00 +13°C° 0.1 mm 9 mps 737 mmHg 69%
11:00 +13°C° 0.1 mm 9 mps 737 mmHg 67%
12:00 +15°C° 0.1 mm 9 mps 738 mmHg 64%
13:00 +13°C° 0.3 mm 8 mps 738 mmHg 68%
14:00 +13°C° 0.3 mm 8 mps 738 mmHg 72%
15:00 +12°C° 0.3 mm 8 mps 738 mmHg 75%
16:00 +12°C° 0.2 mm 7 mps 738 mmHg 78%
17:00 +11°C° 0.2 mm 7 mps 738 mmHg 80%
18:00 +11°C° 0.2 mm 6 mps 738 mmHg 82%
19:00 +10°C° 0 mm 5 mps 739 mmHg 85%
20:00 +9°C° 0 mm 5 mps 739 mmHg 88%
21:00 +8°C° 0 mm 4 mps 740 mmHg 90%
22:00 +8°C° 0 mm 4 mps 740 mmHg 90%
23:00 +7°C° 0 mm 4 mps 740 mmHg 90%

Day after tomorrow, 6 July, Monday

Time Temperature Precipitation Wind Pressure Humidity
00:00 +7°C° 0 mm 4 mps 741 mmHg 90%
01:00 +7°C° 0 mm 4 mps 741 mmHg 89%
02:00 +8°C° 0 mm 3 mps 742 mmHg 89%
03:00 +8°C° 0 mm 3 mps 742 mmHg 88%
04:00 +9°C° 0 mm 3 mps 743 mmHg 87%
05:00 +8°C° 0 mm 4 mps 744 mmHg 85%
06:00 +10°C° 0 mm 4 mps 745 mmHg 84%
07:00 +11°C° 0 mm 4 mps 746 mmHg 78%
08:00 +12°C° 0 mm 5 mps 747 mmHg 73%
09:00 +14°C° 0 mm 6 mps 748 mmHg 67%
10:00 +14°C° 0 mm 6 mps 749 mmHg 65%
11:00 +15°C° 0 mm 6 mps 750 mmHg 63%
12:00 +15°C° 0 mm 5 mps 751 mmHg 60%
13:00 +15°C° 0 mm 5 mps 751 mmHg 60%
14:00 +15°C° 0 mm 5 mps 752 mmHg 60%
15:00 +17°C° 0 mm 4 mps 752 mmHg 60%
16:00 +15°C° 0 mm 4 mps 753 mmHg 63%
17:00 +15°C° 0 mm 4 mps 753 mmHg 66%
18:00 +14°C° 0 mm 4 mps 753 mmHg 70%
19:00 +12°C° 0 mm 4 mps 753 mmHg 72%
20:00 +11°C° 0 mm 4 mps 753 mmHg 75%
21:00 +8°C° 0 mm 5 mps 753 mmHg 78%
22:00 +7°C° 0 mm 4 mps 753 mmHg 81%
23:00 +7°C° 0 mm 4 mps 753 mmHg 85%

7 July, Tuesday

Time Temperature Precipitation Wind Pressure Humidity
00:00 +6°C° 0 mm 4 mps 753 mmHg 88%
01:00 +6°C° 0 mm 4 mps 753 mmHg 90%
02:00 +6°C° 0 mm 4 mps 753 mmHg 92%
03:00 +5°C° 0 mm 4 mps 753 mmHg 94%
04:00 +6°C° 0 mm 4 mps 753 mmHg 90%
05:00 +7°C° 0 mm 4 mps 753 mmHg 86%
06:00 +8°C° 0 mm 4 mps 753 mmHg 82%
07:00 +11°C° 0 mm 4 mps 753 mmHg 77%
08:00 +12°C° 0 mm 4 mps 753 mmHg 71%
09:00 +13°C° 0 mm 4 mps 753 mmHg 66%
10:00 +14°C° 0 mm 4 mps 753 mmHg 65%
11:00 +14°C° 0 mm 4 mps 753 mmHg 64%
12:00 +15°C° 0 mm 4 mps 753 mmHg 63%
13:00 +16°C° 0 mm 3 mps 753 mmHg 64%
14:00 +16°C° 0 mm 3 mps 753 mmHg 65%
15:00 +16°C° 0 mm 3 mps 753 mmHg 66%
16:00 +14°C° 0 mm 3 mps 753 mmHg 69%
17:00 +14°C° 0 mm 4 mps 753 mmHg 72%
18:00 +14°C° 0 mm 4 mps 753 mmHg 75%
19:00 +12°C° 0.2 mm 3 mps 752 mmHg 81%
20:00 +11°C° 0.2 mm 3 mps 752 mmHg 87%
21:00 +10°C° 0.2 mm 3 mps 751 mmHg 93%
22:00 +10°C° 0.2 mm 3 mps 750 mmHg 93%
23:00 +10°C° 0.2 mm 3 mps 749 mmHg 94%

8 July, Wednesday

Time Temperature Precipitation Wind Pressure Humidity
00:00 +10°C° 0.2 mm 3 mps 749 mmHg 95%
01:00 +10°C° 0.8 mm 3 mps 748 mmHg 96%
02:00 +10°C° 0.8 mm 3 mps 747 mmHg 97%
03:00 +10°C° 0.8 mm 3 mps 746 mmHg 98%
04:00 +11°C° 1.1 mm 3 mps 745 mmHg 98%
05:00 +12°C° 1.1 mm 4 mps 744 mmHg 97%
06:00 +13°C° 1.1 mm 4 mps 743 mmHg 97%
07:00 +13°C° 0.1 mm 5 mps 743 mmHg 94%
08:00 +14°C° 0.1 mm 6 mps 742 mmHg 91%
09:00 +13°C° 0.1 mm 8 mps 742 mmHg 88%
10:00 +13°C° 0 mm 8 mps 742 mmHg 86%
11:00 +12°C° 0 mm 9 mps 741 mmHg 84%
12:00 +12°C° 0 mm 10 mps 741 mmHg 82%
13:00 +12°C° 0 mm 9 mps 741 mmHg 81%
14:00 +13°C° 0 mm 9 mps 741 mmHg 79%
15:00 +13°C° 0 mm 9 mps 741 mmHg 78%
16:00 +13°C° 0 mm 9 mps 742 mmHg 78%
17:00 +13°C° 0 mm 9 mps 742 mmHg 78%
18:00 +13°C° 0 mm 9 mps 743 mmHg 78%
19:00 +12°C° 0 mm 8 mps 744 mmHg 77%
20:00 +11°C° 0 mm 7 mps 745 mmHg 76%
21:00 +10°C° 0 mm 6 mps 746 mmHg 75%
22:00 +9°C° 0 mm 6 mps 747 mmHg 75%
23:00 +9°C° 0 mm 6 mps 748 mmHg 75%

9 July, Thursday

Time Temperature Precipitation Wind Pressure Humidity
00:00 +9°C° 0 mm 6 mps 749 mmHg 76%
01:00 +8°C° 0 mm 5 mps 750 mmHg 78%
02:00 +7°C° 0 mm 5 mps 750 mmHg 81%
03:00 +6°C° 0 mm 5 mps 751 mmHg 84%
04:00 +6°C° 0 mm 5 mps 751 mmHg 82%
05:00 +7°C° 0 mm 4 mps 752 mmHg 81%
06:00 +8°C° 0 mm 4 mps 752 mmHg 80%
07:00 +10°C° 0 mm 4 mps 752 mmHg 74%
08:00 +11°C° 0 mm 4 mps 753 mmHg 69%
09:00 +13°C° 0 mm 4 mps 753 mmHg 64%
10:00 +13°C° 0 mm 4 mps 753 mmHg 62%
11:00 +14°C° 0 mm 4 mps 753 mmHg 61%
12:00 +16°C° 0 mm 3 mps 753 mmHg 59%
13:00 +16°C° 0.1 mm 3 mps 753 mmHg 59%
14:00 +17°C° 0.1 mm 3 mps 753 mmHg 60%
15:00 +17°C° 0.1 mm 3 mps 753 mmHg 60%
16:00 +16°C° 0.2 mm 3 mps 753 mmHg 65%
17:00 +16°C° 0.2 mm 3 mps 753 mmHg 69%
18:00 +16°C° 0.2 mm 3 mps 752 mmHg 73%
19:00 +13°C° 0.1 mm 3 mps 753 mmHg 77%
20:00 +12°C° 0.1 mm 3 mps 753 mmHg 80%
21:00 +10°C° 0.1 mm 3 mps 753 mmHg 83%
22:00 +9°C° 0 mm 3 mps 753 mmHg 85%
23:00 +8°C° 0 mm 3 mps 752 mmHg 87%
Show more